Weather reports worldwide

Advertisment
Chania/Souda, Greece (16746): temperature & dewpoint: 13.01.2019 11:00:00 - 19.01.2019 11:00:00 (EET)Chania/Souda, Greece (16746): wind speed: 13.01.2019 11:00:00 - 19.01.2019 11:00:00 (EET)Chania/Souda, Greece (16746): wind direction: 13.01.2019 11:00:00 - 19.01.2019 11:00:00 (EET)Chania/Souda, Greece (16746): reduced air pressure: 13.01.2019 11:00:00 - 19.01.2019 11:00:00 (EET)Chania/Souda, Greece (16746): visibility: 13.01.2019 11:00:00 - 19.01.2019 11:00:00 (EET)
Date & Time tt [°C] td [°C] ff [km/h] ff [kn] dd ppp [hPa] vv [km]
19.01.2019 11:00:00 12,0 7,0 0 0 N 1019,1 10
19.01.2019 10:00:00 11,0 7,0 0 0 N - 10
19.01.2019 09:00:00 9,0 5,0 0 0 N - 10
19.01.2019 08:00:00 8,0 5,8 0 0 N 1018,9 10
19.01.2019 07:00:00 8,0 5,0 0 0 N - 10
19.01.2019 06:00:00 8,0 6,0 0 0 N - 10
19.01.2019 05:00:00 7,2 2,9 0 0 N 1019,1 10
19.01.2019 04:00:00 8,0 4,0 0 0 N - 10
19.01.2019 03:00:00 7,0 5,0 0 0 N - 10
19.01.2019 02:00:00 8,2 5,1 0 0 N 1019,8 10
19.01.2019 01:00:00 8,0 5,0 0 0 N - 10
19.01.2019 00:00:00 9,0 4,0 0 0 N - 10
18.01.2019 23:00:00 7,6 5,8 0 0 N 1020,3 10
18.01.2019 22:00:00 8,0 6,0 0 0 N - 10
18.01.2019 21:00:00 8,0 6,0 0 0 N - 10
18.01.2019 20:00:00 10,6 5,4 8 4 S 1019,8 10
18.01.2019 19:00:00 11,0 6,0 9 5 SSE - 10
18.01.2019 18:00:00 11,0 9,0 0 0 N - 10
18.01.2019 17:00:00 14,0 8,0 8 4 NNW 1019,4 10
18.01.2019 16:00:00 15,0 6,0 5 3 ENE - 10
18.01.2019 15:00:00 16,0 8,0 11 6 E - 10
18.01.2019 14:00:00 16,4 7,7 9 5 WSW 1019,9 10
18.01.2019 13:00:00 16,0 6,0 16 9 WSW - 10
18.01.2019 12:00:00 15,0 7,0 11 6 W - 10
18.01.2019 11:00:00 13,6 6,6 8 4 SSW 1021,1 10
18.01.2019 10:00:00 13,0 4,0 0 0 N - 10
18.01.2019 09:00:00 9,0 6,0 9 5 SW - 10
18.01.2019 08:00:00 8,4 3,8 11 6 SW 1020,0 10
18.01.2019 07:00:00 9,0 4,0 11 6 SW - 10
18.01.2019 06:00:00 9,0 5,0 13 7 WSW - 10
18.01.2019 05:00:00 8,8 6,2 11 6 WSW 1019,9 10
18.01.2019 04:00:00 10,0 6,0 11 6 WSW - 10
18.01.2019 03:00:00 10,0 6,0 13 7 WSW - 10
18.01.2019 02:00:00 9,8 5,9 9 5 WSW 1020,5 10
18.01.2019 01:00:00 9,0 7,0 0 0 N - 10
18.01.2019 00:00:00 10,0 7,0 9 5 SW - 10
17.01.2019 23:00:00 10,2 7,3 11 6 WSW 1021,3 10
17.01.2019 22:00:00 11,0 7,0 16 9 WSW - 10
17.01.2019 21:00:00 11,0 6,0 16 9 WSW - 10
17.01.2019 20:00:00 10,8 6,1 15 8 WSW 1020,7 10
17.01.2019 19:00:00 11,0 7,0 21 11 W - 10
17.01.2019 18:00:00 11,0 8,0 21 11 W - 10
17.01.2019 17:00:00 12,8 7,5 29 16 W 1020,0 10
17.01.2019 16:00:00 13,0 6,0 31 17 W - 10
17.01.2019 15:00:00 14,0 9,0 29 16 W - 10
17.01.2019 14:00:00 14,2 7,3 26 14 W 1020,0 10
17.01.2019 13:00:00 14,0 8,0 28 15 W - 10
17.01.2019 12:00:00 14,0 8,0 28 15 W - 10
17.01.2019 11:00:00 13,0 7,8 21 11 W 1021,3 10
17.01.2019 10:00:00 12,0 7,0 22 12 W - 10
17.01.2019 09:00:00 11,0 6,0 21 11 W - 10
17.01.2019 08:00:00 9,0 5,5 18 10 W 1020,7 10
17.01.2019 07:00:00 9,0 6,0 24 13 W - 10
17.01.2019 06:00:00 9,0 5,0 24 13 W - 10
17.01.2019 05:00:00 8,4 5,3 18 10 W 1020,2 10
17.01.2019 04:00:00 8,0 5,0 15 8 W - 10
17.01.2019 03:00:00 8,0 5,0 15 8 W - 10
17.01.2019 02:00:00 8,0 4,8 11 6 WNW 1021,1 10
17.01.2019 01:00:00 6,0 6,0 8 4 WNW - 10
17.01.2019 00:00:00 7,0 4,0 8 4 W - 10
16.01.2019 23:00:00 7,0 3,2 9 5 W 1021,3 10
16.01.2019 22:00:00 5,0 1,0 8 4 W - 10
16.01.2019 21:00:00 4,0 1,0 0 0 N - 10
16.01.2019 20:00:00 4,2 0,6 8 4 WNW 1021,3 10
16.01.2019 19:00:00 5,0 0,0 0 0 N - 10
16.01.2019 18:00:00 6,0 1,0 9 5 W - 10
16.01.2019 17:00:00 8,0 0,5 15 8 W 1020,5 10
16.01.2019 16:00:00 9,0 2,0 21 11 WNW - 10
16.01.2019 15:00:00 9,0 2,0 26 14 WNW - 10
16.01.2019 14:00:00 10,2 2,8 21 11 NW 1019,5 10
16.01.2019 13:00:00 9,0 2,0 22 12 NNW - 10
16.01.2019 12:00:00 9,0 2,0 24 13 NNW - 10
16.01.2019 11:00:00 7,6 1,2 28 15 NW 1019,3 10
16.01.2019 10:00:00 7,0 0,0 31 17 NNW - 10
16.01.2019 09:00:00 5,0 0,0 29 16 NNW - 10
16.01.2019 08:00:00 5,0 -0,3 28 15 NNW 1015,8 10
16.01.2019 07:00:00 - - - - - - -
16.01.2019 06:00:00 5,0 1,0 28 15 N - 10
16.01.2019 05:00:00 2,8 2,3 31 17 N 1013,5 9
16.01.2019 04:00:00 4,0 2,0 39 21 NNW - 10
16.01.2019 03:00:00 5,0 0,0 35 19 NNW - 9
16.01.2019 02:00:00 4,0 1,5 28 15 NNW 1011,8 10
16.01.2019 01:00:00 4,0 2,0 28 15 NNW - 10
16.01.2019 00:00:00 4,0 4,0 26 14 NNW - 9
15.01.2019 23:00:00 4,0 4,0 18 10 NNW 1009,9 9
15.01.2019 22:00:00 5,0 4,0 34 18 N - 9
15.01.2019 21:00:00 7,0 5,0 0 0 N - 10
15.01.2019 20:00:00 7,2 4,9 0 0 N 1006,6 10
15.01.2019 19:00:00 7,0 6,0 8 4 NNW - 10
15.01.2019 18:00:00 7,0 6,0 8 4 N - 10
15.01.2019 17:00:00 7,0 6,1 0 0 N 1003,1 10
15.01.2019 16:00:00 7,0 6,0 18 10 NNW - 9
15.01.2019 15:00:00 8,0 7,0 15 8 N - 8
15.01.2019 14:00:00 8,0 7,6 21 11 NNW 1002,2 10
15.01.2019 13:00:00 8,0 7,0 18 10 NW - 9
15.01.2019 12:00:00 8,0 8,0 24 13 NNW - 10
15.01.2019 11:00:00 8,0 7,6 24 13 NW 1001,4 8
15.01.2019 10:00:00 8,0 7,0 28 15 NW - 9
15.01.2019 09:00:00 8,0 7,0 39 21 NNW - 9
15.01.2019 08:00:00 8,4 7,5 37 20 NW 996,6 10
15.01.2019 07:00:00 10,0 8,0 67 36 WNW - 7
15.01.2019 06:00:00 11,0 8,0 55 30 W - 10
15.01.2019 05:00:00 11,4 8,2 22 12 W 990,2 10
15.01.2019 04:00:00 9,0 7,0 11 6 W - 10
15.01.2019 03:00:00 9,0 8,0 11 6 W - 8
15.01.2019 02:00:00 9,0 8,2 0 0 N 995,0 8
15.01.2019 01:00:00 10,0 8,0 8 4 SE - 10
15.01.2019 00:00:00 10,0 8,0 8 4 SE - 10
14.01.2019 23:00:00 10,0 7,9 11 6 SSE 1000,6 10
14.01.2019 22:00:00 10,0 8,0 18 10 NNE - 10
14.01.2019 21:00:00 11,0 8,0 0 0 N - 10
14.01.2019 20:00:00 10,4 7,5 0 0 N 1003,4 10
14.01.2019 19:00:00 11,0 7,0 11 6 W - 10
14.01.2019 18:00:00 11,0 8,0 8 4 W - 10
14.01.2019 17:00:00 11,6 7,5 15 8 WSW 1003,4 10
14.01.2019 16:00:00 12,0 8,0 15 8 WSW - 10
14.01.2019 15:00:00 12,0 8,0 21 11 W - 10
14.01.2019 14:00:00 12,2 7,7 22 12 W 1003,5 10
14.01.2019 13:00:00 13,0 9,0 29 16 W - 10
14.01.2019 12:00:00 12,0 8,0 26 14 W - 10
14.01.2019 11:00:00 11,6 6,6 26 14 W 1005,0 10
14.01.2019 10:00:00 10,0 6,0 22 12 W - 10
14.01.2019 09:00:00 9,0 7,0 18 10 WSW - 10
14.01.2019 08:00:00 8,2 6,9 18 10 WSW 1005,3 10
14.01.2019 07:00:00 9,0 7,0 21 11 W - 9
14.01.2019 06:00:00 9,0 6,0 13 7 W - 10
14.01.2019 05:00:00 9,4 6,4 13 7 W 1005,4 10
14.01.2019 04:00:00 9,0 6,0 15 8 W - 10
14.01.2019 03:00:00 9,0 6,0 15 8 W - 10
14.01.2019 02:00:00 9,0 6,0 15 8 WSW 1007,4 10
14.01.2019 01:00:00 9,0 6,0 18 10 W - 10
14.01.2019 00:00:00 8,0 6,0 0 0 N - 10
13.01.2019 23:00:00 8,0 6,7 15 8 WSW 1009,1 10
13.01.2019 22:00:00 10,0 7,0 15 8 WSW - 10
13.01.2019 21:00:00 9,0 6,0 15 8 W - 10
13.01.2019 20:00:00 9,4 6,4 15 8 W 1009,0 10
13.01.2019 19:00:00 9,0 7,0 8 4 WNW - 10
13.01.2019 18:00:00 10,0 8,0 0 0 N - 10
13.01.2019 17:00:00 10,4 8,4 11 6 NW 1008,6 10
13.01.2019 16:00:00 13,0 9,0 15 8 NW - 10
13.01.2019 15:00:00 13,0 9,0 15 8 NW - 10
13.01.2019 14:00:00 13,0 9,1 13 7 NW 1008,5 10
13.01.2019 13:00:00 12,0 9,0 18 10 NNW - 10
13.01.2019 12:00:00 11,0 9,0 18 10 NNW - 10
13.01.2019 11:00:00 10,8 9,2 15 8 NNW 1009,3 10

tt = temperature
td = dewpoint
ff = wind speed
dd = wind direction
ppp = reduced air pressure
vv = visibility

Next stations